PARUS-T1

operational
NORAD ID: 62656 Int'l Des: NNA 2025-009 Owner: TASA/PYRAS Country: J
LEOCIRCULARRETROGRADESSO

About PARUS-T1

Description loading...

Live Position

Loading 3D Globe...

Upcoming Passes

Altitude History

Altitude vs Time

uPlot chart will show altitude changes over time

Two-Line Element Set

1 62656U 25009AZ 26061.12469967 .00016799 00000-0 57924-3 0 9992
2 62656 97.4002 144.4340 0001491 57.8036 302.3349 15.30065474 62639
Epoch: Mar 2, 2026 • Age: 32 hours

Current Status

Altitude 487.6 km
Velocity 7.63 km/s
Sub-Earth Point 74.24°N, 76.29°E
Launch Date Jan 14, 2025
Age 1.1 years
Type other

Technical Details

Classification Payload
Mass 4.00 kg
Dry Mass 4.00 kg
Total Mass 4.00 kg
Length 0.30 m
Diameter 0.10 m
Span 0.30 m
Shape Box
Manufacturer PYRAS
Bus Type Cubesat 3U
Phase Status In Orbit
Owner/State TASA/PYRAS/J

Large Constellations

Loading constellations...